| time (UTC) | temp F | wind direction | speed MPH | gust MPH | rain 1hr in | rain 24hr in | rain mn in | humidity % | barometer mb |
| 20260503203703 | 86 | 200 | 3.0 | 10.0 | 0.00 | 0.00 | 0.00 | 27 | 1014.5 |
| 20260503203204 | 85 | 202 | 4.0 | 13.0 | 0.00 | 0.00 | 0.00 | 25 | 1014.7 |
| 20260503200704 | 87 | 247 | 3.0 | 12.0 | 0.00 | 0.00 | 0.00 | 26 | 1015.2 |
| 20260503200203 | 86 | 224 | 4.0 | 17.0 | 0.00 | 0.00 | 0.00 | 24 | 1015.2 |
| 20260503193704 | 86 | 193 | 4.0 | 8.0 | 0.00 | 0.00 | 0.00 | 24 | 1015.3 |
| 20260503193204 | 86 | 217 | 5.0 | 14.0 | 0.00 | 0.00 | 0.00 | 27 | 1015.4 |
| 20260503190704 | 85 | 173 | 3.0 | 7.0 | 0.00 | 0.00 | 0.00 | 28 | 1016.0 |
| 20260503190204 | 85 | 152 | 2.0 | 20.0 | 0.00 | 0.00 | 0.00 | 30 | 1016.0 |
| 20260503183705 | 85 | 217 | 3.0 | 7.0 | 0.00 | 0.00 | 0.00 | 26 | 1016.4 |
| 20260503183205 | 84 | 207 | 4.0 | 14.0 | 0.00 | 0.00 | 0.00 | 29 | 1016.5 |
| 20260503180705 | 83 | 219 | 4.0 | 15.0 | 0.00 | 0.00 | 0.00 | 34 | 1017.1 |
| 20260503173703 | 81 | 175 | 4.0 | 7.0 | 0.00 | 0.00 | 0.00 | 41 | 1017.8 |
| 20260503170702 | 79 | 231 | 2.0 | 10.0 | 0.00 | 0.00 | 0.00 | 43 | 1018.2 |
| 20260503160202 | 74 | 215 | 2.0 | 7.0 | 0.00 | 0.00 | 0.00 | 53 | 1018.7 |
| 20260503150702 | 68 | 169 | 2.0 | 7.0 | 0.00 | 0.00 | 0.00 | 62 | 1018.9 |
| 20260503150202 | 67 | 196 | 2.0 | 9.0 | 0.00 | 0.00 | 0.00 | 61 | 1019.0 |
| 20260503140202 | 62 | 165 | 4.0 | 12.0 | 0.00 | 0.00 | 0.00 | 66 | 1019.2 |
| 20260503130702 | 57 | 159 | 3.0 | 7.0 | 0.00 | 0.00 | 0.00 | 71 | 1019.3 |
| 20260503130203 | 57 | 160 | 5.0 | 9.0 | 0.00 | 0.00 | 0.00 | 71 | 1019.2 |
| 20260503120203 | 53 | 165 | 4.0 | 9.0 | 0.00 | 0.00 | 0.00 | 70 | 1019.1 |
| 20260503110703 | 53 | 142 | 2.0 | 5.0 | 0.00 | 0.00 | 0.00 | 67 | 1019.1 |
| 20260503110202 | 53 | 171 | 3.0 | 7.0 | 0.00 | 0.00 | 0.00 | 67 | 1019.1 |
| 20260503090202 | 52 | 163 | 1.0 | 6.0 | 0.00 | 0.00 | 0.00 | 69 | 1020.5 |
| 20260503080703 | 52 | 170 | 1.0 | 2.0 | 0.00 | 0.00 | 0.00 | 70 | 1020.8 |
| 20260503080203 | 52 | 170 | 0.0 | 3.0 | 0.00 | 0.00 | 0.00 | 70 | 1020.8 |
| 20260503070703 | 53 | 164 | 2.0 | 5.0 | 0.00 | 0.00 | 0.00 | 69 | 1021.4 |
| 20260503070203 | 53 | 155 | 1.0 | 5.0 | 0.00 | 0.00 | 0.00 | 69 | 1021.4 |
| 20260503060203 | 54 | 128 | 1.0 | 3.0 | 0.00 | 0.00 | 0.00 | 68 | 1021.6 |
| 20260503053704 | 55 | 128 | 1.0 | 2.0 | 0.00 | 0.00 | 0.00 | 67 | 1021.5 |
| 20260503053203 | 55 | 128 | 1.0 | 3.0 | 0.00 | 0.00 | 0.00 | 67 | 1021.5 |
| 20260503050203 | 56 | 127 | 0.0 | 3.0 | 0.00 | 0.00 | 0.00 | 64 | 1021.3 |
| 20260503043703 | 57 | 136 | 1.0 | 2.0 | 0.00 | 0.00 | 0.00 | 62 | 1021.3 |
| 20260503043203 | 57 | 136 | 2.0 | 3.0 | 0.00 | 0.00 | 0.00 | 62 | 1021.2 |
| 20260503040703 | 57 | 161 | 2.0 | 3.0 | 0.00 | 0.00 | 0.00 | 62 | 1021.3 |
| 20260503033703 | 58 | 160 | 0.0 | 2.0 | 0.00 | 0.00 | 0.00 | 62 | 1021.3 |
| 20260503033203 | 58 | 160 | 1.0 | 3.0 | 0.00 | 0.00 | 0.00 | 61 | 1021.3 |
| 20260503030703 | 60 | 160 | 1.0 | 2.0 | 0.00 | 0.00 | 0.00 | 58 | 1021.2 |
| 20260503030203 | 60 | 160 | 2.0 | 6.0 | 0.00 | 0.00 | 0.00 | 58 | 1021.0 |
| 20260503023703 | 60 | 144 | 0.0 | 1.0 | 0.00 | 0.00 | 0.00 | 58 | 1020.9 |
| 20260503020703 | 62 | 144 | 0.0 | 0.0 | 0.00 | 0.00 | 0.00 | 54 | 1020.9 |
| 20260503020203 | 63 | 144 | 0.0 | 0.0 | 0.00 | 0.00 | 0.00 | 53 | 1020.9 |
| 20260503013702 | 66 | 161 | 0.0 | 1.0 | 0.00 | 0.00 | 0.00 | 48 | 1020.7 |
| 20260503013203 | 66 | 161 | 1.0 | 6.0 | 0.00 | 0.00 | 0.00 | 46 | 1020.8 |
| 20260503010703 | 67 | 63 | 1.0 | 3.0 | 0.00 | 0.00 | 0.00 | 46 | 1020.5 |
| 20260503010203 | 67 | 65 | 1.0 | 3.0 | 0.00 | 0.00 | 0.00 | 47 | 1020.5 |
| 20260503003703 | 68 | 39 | 1.0 | 3.0 | 0.00 | 0.00 | 0.00 | 44 | 1020.6 |
| 20260503003203 | 68 | 58 | 0.0 | 3.0 | 0.00 | 0.00 | 0.00 | 44 | 1020.7 |
| 20260503000703 | 70 | 11 | 1.0 | 3.0 | 0.00 | 0.00 | 0.00 | 41 | 1020.8 |
| 20260503000204 | 70 | 11 | 1.0 | 8.0 | 0.00 | 0.00 | 0.00 | 40 | 1020.7 |
| 20260502233703 | 72 | 36 | 2.0 | 3.0 | 0.00 | 0.00 | 0.00 | 37 | 1020.9 |
| 20260502233202 | 73 | 79 | 1.0 | 5.0 | 0.00 | 0.00 | 0.00 | 38 | 1020.9 |
| 20260502230703 | 72 | 18 | 1.0 | 3.0 | 0.00 | 0.00 | 0.00 | 38 | 1020.9 |
| 20260502230204 | 72 | 20 | 4.0 | 9.0 | 0.00 | 0.00 | 0.00 | 37 | 1021.0 |
| 20260502223703 | 72 | 309 | 0.0 | 3.0 | 0.00 | 0.00 | 0.00 | 38 | 1021.0 |
| 20260502223202 | 72 | 311 | 3.0 | 8.0 | 0.00 | 0.00 | 0.00 | 37 | 1021.0 |
| 20260502220702 | 73 | 10 | 3.0 | 7.0 | 0.00 | 0.00 | 0.00 | 39 | 1021.2 |
| 20260502220204 | 72 | 332 | 2.0 | 7.0 | 0.00 | 0.00 | 0.00 | 40 | 1021.2 |
| 20260502213204 | 72 | 51 | 3.0 | 7.0 | 0.00 | 0.00 | 0.00 | 39 | 1021.4 |
| 20260502210203 | 73 | 342 | 4.0 | 9.0 | 0.00 | 0.00 | 0.00 | 41 | 1021.8 |